Location: Hradec Kralove
(50.2170°N, 15.8330°E)
Time: 17:17:08
(UTC+01:00)

Vanguard 1 - Visible Passes

Search period start: 29 January 2023 00:00
Search period end: 08 February 2023 00:00
Orbit: 649 x 3831 km, 34.2° (Epoch: 28 January)

Date Brightness Start Highest point End Pass type
(mag) Time Alt. Az. Time Alt. Az. Time Alt. Az.
29 Jan 12.8 06:09:45 10° SSW 06:18:28 32° SSE 06:32:30 10° E visible
30 Jan 13.0 04:15:15 10° SSE 04:19:37 14° SE 04:25:07 10° ESE visible
30 Jan 12.8 06:29:34 10° SW 06:38:36 35° SSE 06:53:30 10° ESE visible
31 Jan 12.7 04:33:43 10° S 04:39:21 19° SE 04:47:12 10° ESE visible
31 Jan 12.8 06:49:33 10° SW 06:58:50 38° SSE 07:14:22 10° ESE visible
01 Feb 12.6 04:52:53 10° SSW 04:59:13 23° SE 05:08:40 10° E visible
02 Feb 12.5 05:12:25 10° SSW 05:19:13 27° SSE 05:29:50 10° ESE visible
03 Feb 12.4 05:32:11 10° SW 05:39:18 30° SSE 05:50:48 10° ESE visible
04 Feb 12.5 03:38:16 12° SSE 03:40:36 14° SE 03:44:57 10° ESE visible
04 Feb 12.4 05:52:09 10° SW 05:59:30 33° SSE 06:11:39 10° ESE visible
05 Feb 12.3 03:57:54 15° S 04:00:29 18° SE 04:06:38 10° ESE visible
05 Feb 12.4 06:12:15 10° SW 06:19:47 34° S 06:32:21 10° ESE visible
06 Feb 12.1 04:17:29 17° S 04:20:28 21° SSE 04:27:50 10° ESE visible
06 Feb 12.4 06:32:27 10° WSW 06:40:07 34° S 06:52:55 10° ESE visible
07 Feb 11.9 04:37:04 18° SSW 04:40:33 24° SSE 04:48:47 10° ESE visible
